FENGYUN 1C DEB

Satellite information

Favourite Embed

Satellite Type and Status

DEBRISIN ORBIT

Key statistics

Satellite FENGYUN 1C DEB at a glance.

Uptime

9615

Days in orbit

Revolutions

≈ 14.1

Per day

Orbit

SSO

Sun Synchronous Orbit

Inclination

98.6

Latest

Satellite identification and parameters

Extended collection of information and parameters for FENGYUN 1C DEB.

Object identification

Identified? True

Debris? True

Object name: FENGYUN 1C DEB

International designator: 1999-025DHP

Object number (NORAD): 33726

Object ID (CCSDS): 33726

Country: PEOPLES REPUBLIC OF CHINA (PRC)

Current information (Y/N): Y

RCS size: SMALL

Orbital parameters

Period: 101.84 minutes

Inclination: 98.628 deg

SMA: 7223.896 km

Apoapsis: 984.738 km

Periapsis: 706.785 km

RAAN: 14.5751 deg

Eccentricy: 0.01923849

Argument of periapsis: 316.1159 deg

Mean anomaly: 224.2592 deg

Mean motion: 14.13987282 rev/day

Mean motion (dot): 0.00000952 rev/day2

B* drag term: 0.00043949513 1/REarth

Two-line elements (TLE)

Creation date: Sept. 4, 2025, 10:13 a.m.

Reference frame: TEME

Reference center: EARTH

Epoch: Sept. 4, 2025, 2:18 a.m. UTC

TLE line 0: 0 FENGYUN 1C DEB

TLE line 1: 1 33726U 99025DHP 25247.09643155 .00000952 00000-0 43950-3 0 9999

TLE line 2: 2 33726 98.6280 14.5751 0192385 316.1159 224.2592 14.13987282905233

Live tracking on map

Real-time ground track for satellite FENGYUN 1C DEB.

In-orbit conjunctions

A list of the most updated potential collisions computed for object FENGYUN 1C DEB.

Target Orbit TCA Probability of collision Miss distance Type
CZ-6A DEB LEO 2025-01-21 14:50:05 0.0001861375 628.0 (m) DEBRIS
CZ-6A DEB SSO 2024-11-24 04:46:09 0.0001018134 303.0 (m) DEBRIS

Associated space launch

Chinese polar orbiting meteorological satellite

FENGYUN 1C DEB was lifted into orbit during the mission ‘Long March 4B | Feng Yun 1C’, on board a Long March 4B space rocket.

The launch took place on May 10, 1999, 1:33 a.m. from Launch Complex 7.

For more information about the launch, click the button.

Launch to space Long March 4B | Feng Yun 1C
Long March 4B | Feng Yun 1C

Agency: N/A

Status: Launch Successful

Launch date: May 10, 1999, 1:33 a.m. UTC

Rocket: Long March 4B

Launch pad: Launch Complex 7

Location: Taiyuan Satellite Launch Center, People's Republic of China

...

Latest news about this satellite

There are no fresh news available about this satellite. Check back as we update our databases every day.


Newsletter sign-up

Weekly statistics, charts and insights to help you stay on top of the space industry.